Hourly Data Report for July 11, 2021

CAMPBELL RIVER A
BRITISH COLUMBIA
Current Station Operator: NAVCAN

49°57'07.000" N
125°16'23.000" W
108.80 m
1021270
YBL

Download Data

Hourly Data (July 2021)
Hourly Data Report for July 11, 2021
TIME
LST
Temp Definition
°C
Dew Point Definition
°C
Rel Hum Definition
%
Precip. Amount Definition
mm

Wind Dir Definition
10's deg

Wind Spd Definition
km/h
Visibility Definition
km
Stn Press Definition
kPa
Hmdx Definition


Wind Chill Definition


Weather Definition


00:00 18.0 9.1 55 LegendMM 30 20 LegendMM 100.76     LegendNANA
01:00 16.8 9.3 61 LegendMM 30 14 LegendMM 100.75     LegendNANA
02:00 16.3 9.7 65 LegendMM 31 15 LegendMM 100.77     LegendNANA
03:00 15.4 10.3 71 LegendMM 31 20 LegendMM 100.75     LegendNANA
04:00 14.8 9.6 71 LegendMM 32 20 LegendMM 100.75     LegendNANA
05:00 14.4 10.2 76 LegendMM 30 14 LegendMM 100.77     LegendNANA
06:00 15.4 10.3 71 LegendMM 31 17 LegendMM 100.79     LegendNANA
07:00 16.9 10.4 65 LegendMM 31 14 LegendMM 100.82     LegendNANA
08:00 18.8 10.7 59 LegendMM 30 12 LegendMM 100.84     LegendNANA
09:00 20.1 10.2 52 LegendMM 32 5 LegendMM 100.84     LegendNANA
10:00 21.4 11.5 53 LegendMM 12 14 LegendMM 100.82     LegendNANA
11:00 23.6 12.0 48 LegendMM 10 13 LegendMM 100.81 26   LegendNANA
12:00 23.6 12.1 48 LegendMM 7 14 LegendMM 100.79 26   LegendNANA
13:00 24.3 12.2 46 LegendMM 9 13 LegendMM 100.75 27   LegendNANA
14:00 25.2 11.9 43 LegendMM 11 5 LegendMM 100.70 27   LegendNANA
15:00 26.3 12.0 40 LegendMM 11 6 LegendMM 100.64 29   LegendNANA
16:00 27.1 12.2 39 LegendMM 6 12 LegendMM 100.58 29   LegendNANA
17:00 27.4 11.1 36 LegendMM 5 9 LegendMM 100.52 29   LegendNANA
18:00 27.8 10.6 34 LegendMM 36 10 LegendMM 100.46 29   LegendNANA
19:00 26.0 10.8 38 LegendMM 34 9 LegendMM 100.46 28   LegendNANA
20:00 22.7 9.0 41 LegendMM 30 11 LegendMM 100.48     LegendNANA
21:00 17.9 10.7 62 LegendMM 31 10 LegendMM 100.51     LegendNANA
22:00 18.6 8.8 53 LegendMM 32 17 LegendMM 100.53     LegendNANA
23:00 17.1 9.3 60 LegendMM 31 16 LegendMM 100.54     LegendNANA

Notes on Data Quality.

Legend

  • E = Estimated
  • M = Missing
  • NA = Not Available*
  • [empty] = Indicates an unobserved value
Date modified: